FLOCK 3P-35

Last updated on Wed Feb 14 2018 16:20:27 GMT+0000 (Coordinated Universal Time)

1 41989U 17008AT 18044.83768807 .00001238 00000-0 54238-4 0 9991 2 41989 97.4660 110.3915 0009429 71.5387 288.6874 15.23887973 54645
UTC large
Height (km)
Speed (km/s)
/
Latitude / Longitude
Inclination (degrees)
Orbital Period (minutes)
Azimuth
Elevation
Range (km)
Doppler Factor

Next 0 passes for location: London (51.5072 / 0.1276)

Sorry there are no passes over London.